Mesón de informaciones

(56 65) 229 4161

Horario

24 horas del día.

Edificio Terminal de pasajeros,

Aeropuerto El Tepual Puerto Montt

Región de los Lagos, Chile.

clima

HORA PREDICCIÓN TEMPERATURA VIENTO HUMEDAD
2018-07-16 14:00:00 Mayormente nublado 10 3.76 0.79
2018-07-16 15:00:00 Mayormente nublado 9 2.69 0.76
2018-07-16 16:00:00 Mayormente nublado 9 1.93 0.76
2018-07-16 17:00:00 Mayormente nublado 8 1.91 0.79
2018-07-16 18:00:00 Mayormente nublado 7 1.71 0.82
2018-07-16 19:00:00 Mayormente nublado 6 1.57 0.84
2018-07-16 20:00:00 Mayormente nublado 6 1.35 0.84
2018-07-16 21:00:00 Mayormente nublado 6 1.5 0.84
2018-07-16 22:00:00 Mayormente nublado 5 1.55 0.85
2018-07-16 23:00:00 Mayormente nublado 4 1.54 0.86
2018-07-17 00:00:00 Mayormente nublado 3 1.54 0.89
2018-07-17 01:00:00 Mayormente nublado 3 1.53 0.89
2018-07-17 02:00:00 Mayormente nublado 2 1.59 0.89
2018-07-17 03:00:00 Mayormente nublado 2 1.72 0.88
2018-07-17 04:00:00 Mayormente nublado 2 1.66 0.89
2018-07-17 05:00:00 Mayormente nublado 2 1.59 0.92
2018-07-17 06:00:00 Mayormente nublado 1 1.47 0.93
2018-07-17 07:00:00 Mayormente nublado 1 1.24 0.92
2018-07-17 08:00:00 Mayormente nublado 2 1.34 0.88
2018-07-17 09:00:00 Mayormente nublado 3 1.51 0.84
2018-07-17 10:00:00 Mayormente nublado 5 2.23 0.78
2018-07-17 11:00:00 Mayormente nublado 6 2.33 0.74
2018-07-17 12:00:00 Mayormente nublado 8 2.73 0.7
2018-07-17 13:00:00 Mayormente nublado 8 3.42 0.66
2018-07-17 14:00:00 Mayormente nublado 9 4.19 0.65